Monroe, NC

1:14 AM EST on February 27, 2017 (GMT -0500)
Monroe

Weather History for KEQY - February, 2013

Change the Weather History Date:

Thursday, February 14, 2013

  Actual Average (KCLT) Record (KCLT)
Temperature  
Mean Temperature 42 °F -  
Max Temperature 51 °F 56 °F 77 °F (1949)
Min Temperature 32 °F 32 °F -5 °F (1899)
Degree Days  
Heating Degree Days 24    
Moisture  
Dew Point 33 °F    
Average Humidity 72    
Maximum Humidity 96    
Minimum Humidity 50    
Precipitation  
Precipitation 0.00 in - - ()
Sea Level Pressure  
Sea Level Pressure 30.05 in    
Wind  
Wind Speed 3 mph (WSW)    
Max Wind Speed 8 mph    
Max Gust Speed -    
Visibility 10 miles    
Events      
Averages and records for this station are not official NWS values.
T = Trace of Precipitation, MM = Missing Value Source: NWS Daily Summary

Daily Weather History Graph

Daily Weather History Graph

Search for Another Location

Airport or City:

Trip Planner

Search our weather history database for the weather conditions in past years. The results will help you decide how hot, cold, wet, or windy it might be!

Date:

Astronomy

Feb. 14, 2013 Rise Set
Actual Time 7:09 AM EST 6:04 PM EST
Civil Twilight 6:43 AM EST 6:30 PM EST
Nautical Twilight 6:13 AM EST 7:00 PM EST
Astronomical Twilight 5:44 AM EST 7:29 PM EST
Moon 9:23 AM EST (2/14) 10:51 PM EST (2/14)
Length of Visible Light 11h 47m
Length of Day
10h 55m
Waxing Crescent, 21% of the Moon is Illuminated
Feb 14
Waxing Crescent
Feb 17
First Quarter
Feb 25
Full
Mar 4
Last Quarter
Mar 11
New

Hourly Weather History & Observations

Time (EST) Temp. Windchill Dew Point Humidity Pressure Visibility Wind Dir Wind Speed Gust Speed Precip Events Conditions
12:53 AM 41.0 °F 39.0 °F 34.0 °F 76% 29.93 in 10.0 mi WNW 3.5 mph - N/A   Clear
1:53 AM 39.9 °F 37.8 °F 33.1 °F 77% 29.94 in 10.0 mi West 3.5 mph - N/A   Clear
2:53 AM 37.9 °F 34.4 °F 33.1 °F 83% 29.96 in 10.0 mi NW 4.6 mph - N/A   Clear
3:53 AM 37.0 °F 34.5 °F 32.0 °F 82% 29.96 in 10.0 mi NW 3.5 mph - N/A   Clear
4:53 AM 37.0 °F - 30.9 °F 79% 30.00 in 10.0 mi Calm Calm - N/A   Clear
5:53 AM 34.0 °F - 30.0 °F 85% 30.02 in 10.0 mi Calm Calm - N/A   Clear
6:53 AM 33.1 °F - 30.9 °F 92% 30.03 in 10.0 mi Calm Calm - N/A   Clear
7:53 AM 32.0 °F - 30.9 °F 96% 30.07 in 10.0 mi Calm Calm - N/A   Clear
8:53 AM 39.0 °F - 34.0 °F 82% 30.08 in 10.0 mi Calm Calm - N/A   Clear
9:53 AM 44.1 °F 39.5 °F 33.1 °F 65% 30.09 in 10.0 mi NNE 8.1 mph - N/A   Clear
10:53 AM 46.0 °F 44.8 °F 30.0 °F 54% 30.10 in 10.0 mi Variable 3.5 mph - N/A   Clear
11:53 AM 46.9 °F - 30.9 °F 54% 30.11 in 10.0 mi Calm Calm - N/A   Clear
12:53 PM 48.9 °F - 32.0 °F 52% 30.08 in 10.0 mi SSW 5.8 mph - N/A   Clear
1:53 PM 50.0 °F - 32.0 °F 50% 30.05 in 10.0 mi SSW 8.1 mph - N/A   Clear
2:53 PM 50.0 °F - 33.1 °F 52% 30.05 in 10.0 mi Calm Calm - N/A   Clear
3:53 PM 51.1 °F - 34.0 °F 52% 30.04 in 10.0 mi SSW 5.8 mph - N/A   Clear
4:53 PM 50.0 °F - 35.1 °F 57% 30.04 in 10.0 mi SW 5.8 mph - N/A   Clear
5:53 PM 48.9 °F - 35.1 °F 59% 30.04 in 10.0 mi Calm Calm - N/A   Clear
6:53 PM 46.0 °F - 35.1 °F 66% 30.05 in 10.0 mi Calm Calm - N/A   Clear
7:53 PM 41.0 °F - 36.0 °F 82% 30.09 in 10.0 mi Calm Calm - N/A   Clear
8:53 PM 42.1 °F - 35.1 °F 76% 30.09 in 10.0 mi Calm Calm - N/A   Clear
9:53 PM 41.0 °F 39.0 °F 35.1 °F 79% 30.11 in 10.0 mi SW 3.5 mph - N/A   Clear
10:53 PM 37.9 °F - 34.0 °F 86% 30.10 in 10.0 mi Calm Calm - N/A   Clear
11:53 PM 36.0 °F - 33.1 °F 89% 30.12 in 10.0 mi Calm Calm - N/A   Clear